Вернуться в каталог

COSMOS 2251 DEB

АктивенVLEO
NORAD 34036·DEBRIS·🇷🇺 Russia

Запущен Jun 16, 1993 с Plesetsk Cosmodrome

Loading…

Ближайшие Пролёты (ближайшие 24 часа)

TLE

СвежийSource: Space-Track

Эпоха: Sep 14, 2026, 05:58 UTC

1 34036U 93036HX  26257.24924982  .00060248  00000-0  23381-2 0  9998
2 34036  73.9996 300.1060 0016414 296.4833  63.4683 15.25685221927276

Отслеживайте COSMOS 2251 DEB в реальном времени с AllMySat

Download on the App Store